Concordia, KS

7:43 AM CDT on August 18, 2017 (GMT -0500)
Blosser Municipal

Weather History for KCNK - October, 2012

Change the Weather History Date:

Thursday, October 4, 2012

  Actual Average Record
Temperature  
Mean Temperature 53 °F 60 °F  
Max Temperature 61 °F 72 °F 96 °F (1963)
Min Temperature 44 °F 48 °F 29 °F (1885)
Degree Days  
Heating Degree Days 12 7  
Month to date heating degree days 31 25  
Since 1 July heating degree days 108 98  
Cooling Degree Days 0 2  
Month to date cooling degree days 0 8  
Year to date cooling degree days 1640 1334  
Growing Degree Days 2 (Base 50)    
Moisture  
Dew Point 37 °F    
Average Humidity 58    
Maximum Humidity 82    
Minimum Humidity 33    
Precipitation  
Precipitation 0.02 in 0.08 in 0.76 in (1902)
Month to date precipitation 0.07 0.32  
Year to date precipitation 19.40 24.33  
Snow  
Snow 0.00 in 0.00 in 0.00 in ()
Month to date snowfall 0.0 0.0  
Year to date snowfall 5.8 13.7  
Since 1 July snowfall 0.0 0.0  
Snow Depth 0.00 in    
Sea Level Pressure  
Sea Level Pressure 30.20 in    
Wind  
Wind Speed 12 mph (North)    
Max Wind Speed 26 mph    
Max Gust Speed 35 mph    
Visibility 10 miles    
Events Rain , Thunderstorm    
T = Trace of Precipitation, MM = Missing Value Source: NWS Daily Summary

Daily Weather History Graph

Daily Weather History Graph

Search for Another Location

Airport or City:

Trip Planner

Search our weather history database for the weather conditions in past years. The results will help you decide how hot, cold, wet, or windy it might be!

Date:

Astronomy

Oct. 04, 2012 Rise Set
Actual Time 7:30 AM CDT 7:07 PM CDT
Civil Twilight 7:03 AM CDT 7:34 PM CDT
Nautical Twilight 6:32 AM CDT 8:05 PM CDT
Astronomical Twilight 6:00 AM CDT 8:36 PM CDT
Moon 9:45 PM CDT (10/4) 11:47 AM CDT (10/4)
Length of Visible Light 12h 31m
Length of Day
11h 37m
Waning Gibbous, 82% of the Moon is Illuminated
Oct 4
Waning Gibbous
Oct 8
Last Quarter
Oct 15
New
Oct 21
First Quarter
Oct 29
Full

Hourly Weather History & Observations

Time (CDT) Temp. Windchill Dew Point Humidity Pressure Visibility Wind Dir Wind Speed Gust Speed Precip Events Conditions
12:02 AM 68.0 °F - 48.2 °F 49% 29.96 in 10.0 mi NW 6.9 mph 19.6 mph N/A Thunderstorm Mostly Cloudy
12:22 AM 68.0 °F - 48.2 °F 49% 29.96 in 10.0 mi SW 4.6 mph - N/A   Mostly Cloudy
12:55 AM 63.0 °F - 48.9 °F 60% 29.98 in 10.0 mi NNW 27.6 mph 34.5 mph N/A   Partly Cloudy
1:06 AM 60.8 °F - 44.6 °F 55% 30.01 in 10.0 mi NNW 21.9 mph 34.5 mph N/A   Partly Cloudy
1:55 AM 55.9 °F - 41.0 °F 57% 30.02 in 10.0 mi NNW 23.0 mph 34.5 mph N/A   Clear
2:55 AM 53.1 °F - 39.0 °F 59% 30.06 in 10.0 mi North 16.1 mph 21.9 mph N/A   Clear
3:55 AM 52.0 °F - 39.0 °F 61% 30.08 in 10.0 mi North 16.1 mph 24.2 mph N/A   Clear
4:41 AM 51.8 °F - 39.2 °F 62% 30.15 in 10.0 mi NNW 16.1 mph - N/A Thunderstorm Mostly Cloudy
4:55 AM 50.0 °F - 41.0 °F 71% 30.14 in 10.0 mi NNW 19.6 mph 25.3 mph N/A Thunderstorm Overcast
5:41 AM 46.4 °F 40.7 °F 42.8 °F 87% 30.18 in 10.0 mi NNW 12.7 mph - 0.02 in   Mostly Cloudy
5:55 AM 46.0 °F 41.0 °F 42.1 °F 86% 30.16 in 10.0 mi NNW 10.4 mph - 0.02 in   Scattered Clouds
6:55 AM 46.0 °F 41.9 °F 41.0 °F 83% 30.20 in 10.0 mi NW 8.1 mph - N/A   Scattered Clouds
7:21 AM 44.6 °F 38.8 °F 39.2 °F 81% 30.22 in 10.0 mi NNW 11.5 mph - 0.00 in Rain , Thunderstorm Light Rain
7:36 AM 44.6 °F 37.4 °F 37.4 °F 76% 30.23 in 10.0 mi NNW 16.1 mph 25.3 mph 0.00 in   Mostly Cloudy
7:55 AM 45.0 °F 38.5 °F 37.0 °F 74% 30.23 in 10.0 mi NNW 13.8 mph 24.2 mph 0.00 in   Overcast
8:55 AM 45.0 °F 37.4 °F 36.0 °F 71% 30.26 in 10.0 mi North 18.4 mph 27.6 mph N/A   Overcast
9:12 AM 44.6 °F 37.4 °F 35.6 °F 71% 30.28 in 10.0 mi North 16.1 mph 25.3 mph N/A Thunderstorm Overcast
9:27 AM 44.6 °F 38.1 °F 35.6 °F 71% 30.29 in 10.0 mi NNW 13.8 mph - N/A   Overcast
9:55 AM 46.0 °F 39.9 °F 36.0 °F 68% 30.29 in 10.0 mi North 13.8 mph 20.7 mph N/A   Overcast
10:55 AM 48.0 °F - 35.1 °F 61% 30.30 in 10.0 mi North 11.5 mph 23.0 mph N/A   Overcast
11:07 AM 50.0 °F - 35.6 °F 58% 30.31 in 10.0 mi NNW 18.4 mph 25.3 mph N/A   Mostly Cloudy
11:22 AM 48.2 °F - 35.6 °F 62% 30.31 in 10.0 mi NNW 18.4 mph 25.3 mph N/A   Mostly Cloudy
11:55 AM 51.1 °F - 35.1 °F 54% 30.30 in 10.0 mi North 13.8 mph 21.9 mph N/A   Partly Cloudy
12:55 PM 55.0 °F - 34.0 °F 45% 30.29 in 10.0 mi North 13.8 mph 21.9 mph N/A   Clear
1:55 PM 55.9 °F - 32.0 °F 40% 30.28 in 10.0 mi North 15.0 mph - N/A   Clear
2:55 PM 57.9 °F - 32.0 °F 37% 30.26 in 10.0 mi North 12.7 mph 19.6 mph N/A   Clear
3:55 PM 59.0 °F - 30.9 °F 35% 30.24 in 10.0 mi North 8.1 mph 19.6 mph N/A   Clear
4:55 PM 57.9 °F - 30.0 °F 35% 30.24 in 10.0 mi North 8.1 mph - N/A   Clear
5:55 PM 57.0 °F - 30.0 °F 36% 30.24 in 10.0 mi North 10.4 mph - N/A   Clear
6:55 PM 54.0 °F - 30.9 °F 41% 30.25 in 10.0 mi NNE 8.1 mph - N/A   Clear
7:55 PM 51.1 °F - 32.0 °F 48% 30.27 in 10.0 mi NE 4.6 mph - N/A   Clear
8:55 PM 48.9 °F - 32.0 °F 52% 30.29 in 10.0 mi NE 3.5 mph - N/A   Clear
9:55 PM 46.9 °F - 33.1 °F 59% 30.31 in 10.0 mi North 5.8 mph - N/A   Clear
10:55 PM 48.9 °F - 33.1 °F 54% 30.30 in 10.0 mi NE 8.1 mph - N/A   Clear
11:55 PM 48.0 °F - 33.1 °F 56% 30.31 in 10.0 mi NNE 8.1 mph - N/A   Partly Cloudy